Tracking 19176 objects as of 27-May-2018
HD Live streaming from Space Station
objects crossing your sky now

MOLNIYA 1-53

Track MOLNIYA 1-53 now!
MOLNIYA 1-53 is classified as:


NORAD ID: 13070
Int'l Code: 1982-015A
Perigee: 507.8 km
Apogee: 39,846.6 km
Inclination: 62.5 °
Period: 717.5 minutes
Semi major axis: 26548 km
RCS: 15.1776 m2 (large)
Launch date: February 26, 1982
Source: Commonwealth of Independent States (former USSR) (CIS)
Launch site: PLESETSK MISSILE AND SPACE COMPLEX (PKMTR)
aabbcc
Your satellite tracking list
Your tracking list is empty




NASA's NSSDC Master Catalog

Two Line Element Set (TLE):
1 13070U 82015A   18146.35506431  .00000374  00000-0  68908-4 0  9993
2 13070  62.4923  88.2865 7408953 266.2591 348.5745  2.00701466265491
Source of the keplerian elements: AFSPC